When you browse on this site, cookies collect data to enhance your experience and personalize the content and advertising you see.
Visit our Privacy Policy to learn more. By continuing to use the site, you agree to this use of cookies and data.
  • în România
  • Lista ţărilor
  • Pe 7 zile
  • Temperatura apei
  • Hartă satelitară
  • Meteo pe hartă
  • Widget-uri
  • user-avatar
    Intrare

    Meteo pe oră la Arroyo

    Astăzi, 19 Iulie, Vineri

    Timp Temperatura Precipitaţii Vânt Presiune Umiditate
    00:00 +25°C° 0 mm 2 m/s 727 mmHg 39%
    01:00 +24°C° 0 mm 2 m/s 727 mmHg 40%
    02:00 +23°C° 0 mm 1 m/s 726 mmHg 41%
    03:00 +22°C° 0 mm 1 m/s 726 mmHg 43%
    04:00 +22°C° 0 mm 1 m/s 726 mmHg 43%
    05:00 +22°C° 0 mm 1 m/s 726 mmHg 44%
    06:00 +21°C° 0 mm 0 m/s 726 mmHg 43%
    07:00 +26°C° 0 mm 1 m/s 727 mmHg 37%
    08:00 +29°C° 0 mm 1 m/s 727 mmHg 31%
    09:00 +33°C° 0 mm 1 m/s 727 mmHg 25%
    10:00 +35°C° 0 mm 1 m/s 727 mmHg 22%
    11:00 +38°C° 0 mm 2 m/s 727 mmHg 19%
    12:00 +39°C° 0 mm 2 m/s 727 mmHg 17%
    13:00 +40°C° 0 mm 2 m/s 727 mmHg 16%
    14:00 +41°C° 0 mm 2 m/s 726 mmHg 14%
    15:00 +42°C° 0 mm 3 m/s 725 mmHg 13%
    16:00 +42°C° 0 mm 3 m/s 725 mmHg 14%
    17:00 +41°C° 0 mm 4 m/s 725 mmHg 15%
    18:00 +40°C° 0 mm 4 m/s 725 mmHg 16%
    19:00 +37°C° 0 mm 4 m/s 725 mmHg 21%
    20:00 +34°C° 0 mm 4 m/s 725 mmHg 27%
    21:00 +30°C° 0 mm 4 m/s 725 mmHg 32%
    22:00 +28°C° 0 mm 3 m/s 725 mmHg 35%
    23:00 +27°C° 0 mm 3 m/s 725 mmHg 38%

    Mâine, 20 Iulie, Sâmbătă

    Timp Temperatura Precipitaţii Vânt Presiune Umiditate
    00:00 +25°C° 0 mm 2 m/s 726 mmHg 40%
    01:00 +24°C° 0 mm 2 m/s 726 mmHg 44%
    02:00 +23°C° 0 mm 2 m/s 726 mmHg 47%
    03:00 +21°C° 0 mm 2 m/s 726 mmHg 51%
    04:00 +21°C° 0 mm 1 m/s 726 mmHg 52%
    05:00 +21°C° 0 mm 1 m/s 726 mmHg 54%
    06:00 +20°C° 0 mm 1 m/s 726 mmHg 56%
    07:00 +24°C° 0 mm 1 m/s 727 mmHg 47%
    08:00 +27°C° 0 mm 1 m/s 727 mmHg 39%
    09:00 +30°C° 0 mm 1 m/s 728 mmHg 30%
    10:00 +33°C° 0 mm 1 m/s 728 mmHg 25%
    11:00 +36°C° 0 mm 2 m/s 728 mmHg 20%
    12:00 +39°C° 0 mm 2 m/s 728 mmHg 15%
    13:00 +40°C° 0 mm 2 m/s 727 mmHg 14%
    14:00 +42°C° 0 mm 3 m/s 727 mmHg 12%
    15:00 +42°C° 0 mm 3 m/s 727 mmHg 10%
    16:00 +42°C° 0 mm 3 m/s 727 mmHg 11%
    17:00 +41°C° 0 mm 4 m/s 727 mmHg 12%
    18:00 +41°C° 0 mm 4 m/s 727 mmHg 13%
    19:00 +36°C° 0 mm 4 m/s 727 mmHg 20%
    20:00 +33°C° 0 mm 4 m/s 727 mmHg 28%
    21:00 +28°C° 0 mm 4 m/s 728 mmHg 35%
    22:00 +27°C° 0 mm 3 m/s 728 mmHg 43%
    23:00 +25°C° 0 mm 3 m/s 728 mmHg 51%

    Poimâine, 21 Iulie, Duminică

    Timp Temperatura Precipitaţii Vânt Presiune Umiditate
    00:00 +23°C° 0 mm 2 m/s 728 mmHg 59%
    01:00 +21°C° 0 mm 2 m/s 728 mmHg 63%
    02:00 +20°C° 0 mm 2 m/s 728 mmHg 67%
    03:00 +21°C° 0 mm 1 m/s 728 mmHg 71%
    04:00 +21°C° 0 mm 1 m/s 728 mmHg 70%
    05:00 +21°C° 0 mm 1 m/s 728 mmHg 70%
    06:00 +19°C° 0 mm 0 m/s 728 mmHg 69%
    07:00 +22°C° 0 mm 0 m/s 728 mmHg 57%
    08:00 +26°C° 0 mm 0 m/s 729 mmHg 45%
    09:00 +30°C° 0 mm 0 m/s 729 mmHg 33%
    10:00 +34°C° 0 mm 1 m/s 729 mmHg 27%
    11:00 +37°C° 0 mm 1 m/s 729 mmHg 21%
    12:00 +40°C° 0 mm 2 m/s 729 mmHg 16%
    13:00 +41°C° 0 mm 2 m/s 729 mmHg 15%
    14:00 +42°C° 0 mm 2 m/s 729 mmHg 15%
    15:00 +42°C° 0 mm 2 m/s 728 mmHg 14%
    16:00 +43°C° 0 mm 3 m/s 728 mmHg 14%
    17:00 +42°C° 0 mm 3 m/s 728 mmHg 15%
    18:00 +42°C° 0 mm 3 m/s 728 mmHg 15%
    19:00 +38°C° 0 mm 3 m/s 728 mmHg 20%
    20:00 +35°C° 0 mm 3 m/s 728 mmHg 25%
    21:00 +30°C° 0 mm 4 m/s 728 mmHg 30%
    22:00 +29°C° 0 mm 3 m/s 729 mmHg 35%
    23:00 +28°C° 0 mm 2 m/s 729 mmHg 39%

    22 Iulie, Luni

    Timp Temperatura Precipitaţii Vânt Presiune Umiditate
    00:00 +26°C° 0 mm 1 m/s 729 mmHg 43%
    01:00 +26°C° 0 mm 1 m/s 729 mmHg 45%
    02:00 +25°C° 0 mm 1 m/s 729 mmHg 46%
    03:00 +25°C° 0 mm 1 m/s 729 mmHg 47%
    04:00 +25°C° 0 mm 1 m/s 729 mmHg 48%
    05:00 +24°C° 0 mm 2 m/s 729 mmHg 48%
    06:00 +24°C° 0 mm 2 m/s 729 mmHg 49%
    07:00 +27°C° 0 mm 2 m/s 729 mmHg 42%
    08:00 +29°C° 0 mm 2 m/s 730 mmHg 36%
    09:00 +33°C° 0 mm 3 m/s 730 mmHg 30%
    10:00 +35°C° 0 mm 3 m/s 730 mmHg 26%
    11:00 +38°C° 0 mm 2 m/s 730 mmHg 22%
    12:00 +40°C° 0 mm 2 m/s 730 mmHg 19%
    13:00 +41°C° 0 mm 2 m/s 729 mmHg 17%
    14:00 +42°C° 0 mm 2 m/s 729 mmHg 16%
    15:00 +44°C° 0 mm 3 m/s 728 mmHg 15%
    16:00 +43°C° 0 mm 3 m/s 728 mmHg 16%
    17:00 +43°C° 0 mm 3 m/s 728 mmHg 16%
    18:00 +42°C° 0 mm 3 m/s 727 mmHg 17%
    19:00 +37°C° 0.4 mm 3 m/s 728 mmHg 27%
    20:00 +33°C° 0.4 mm 3 m/s 728 mmHg 37%
    21:00 +28°C° 0.4 mm 3 m/s 729 mmHg 47%
    22:00 +27°C° 0 mm 2 m/s 729 mmHg 50%
    23:00 +26°C° 0 mm 1 m/s 729 mmHg 53%

    23 Iulie, Marţi

    Timp Temperatura Precipitaţii Vânt Presiune Umiditate
    00:00 +23°C° 0 mm 0 m/s 729 mmHg 55%
    01:00 +23°C° 0 mm 0 m/s 728 mmHg 57%
    02:00 +22°C° 0 mm 0 m/s 728 mmHg 58%
    03:00 +21°C° 0 mm 0 m/s 728 mmHg 59%
    04:00 +23°C° 0 mm 1 m/s 728 mmHg 61%
    05:00 +23°C° 0 mm 1 m/s 728 mmHg 62%
    06:00 +23°C° 0 mm 1 m/s 728 mmHg 63%
    07:00 +26°C° 0 mm 1 m/s 728 mmHg 54%
    08:00 +28°C° 0 mm 1 m/s 729 mmHg 46%
    09:00 +31°C° 0 mm 2 m/s 729 mmHg 37%
    10:00 +34°C° 0 mm 2 m/s 729 mmHg 32%
    11:00 +37°C° 0 mm 2 m/s 729 mmHg 27%
    12:00 +39°C° 0 mm 2 m/s 729 mmHg 22%
    13:00 +40°C° 0 mm 2 m/s 728 mmHg 20%
    14:00 +40°C° 0 mm 3 m/s 728 mmHg 18%
    15:00 +42°C° 0 mm 3 m/s 727 mmHg 15%
    16:00 +42°C° 0 mm 3 m/s 727 mmHg 15%
    17:00 +40°C° 0 mm 3 m/s 727 mmHg 15%
    18:00 +40°C° 0 mm 3 m/s 726 mmHg 15%
    19:00 +37°C° 0 mm 4 m/s 727 mmHg 22%
    20:00 +34°C° 0 mm 4 m/s 727 mmHg 29%
    21:00 +30°C° 0 mm 5 m/s 727 mmHg 36%
    22:00 +29°C° 0 mm 4 m/s 727 mmHg 38%
    23:00 +27°C° 0 mm 3 m/s 727 mmHg 39%

    24 Iulie, Miercuri

    Timp Temperatura Precipitaţii Vânt Presiune Umiditate
    00:00 +26°C° 0 mm 2 m/s 727 mmHg 41%
    01:00 +25°C° 0 mm 2 m/s 727 mmHg 43%
    02:00 +24°C° 0 mm 1 m/s 727 mmHg 45%
    03:00 +23°C° 0 mm 1 m/s 726 mmHg 48%
    04:00 +23°C° 0 mm 1 m/s 727 mmHg 49%
    05:00 +21°C° 0 mm 0 m/s 727 mmHg 49%
    06:00 +21°C° 0 mm 0 m/s 727 mmHg 50%
    07:00 +24°C° 0 mm 0 m/s 727 mmHg 43%
    08:00 +28°C° 0 mm 0 m/s 728 mmHg 36%
    09:00 +31°C° 0 mm 0 m/s 728 mmHg 29%
    10:00 +33°C° 0 mm 0 m/s 728 mmHg 25%
    11:00 +39°C° 0 mm 1 m/s 728 mmHg 21%
    12:00 +41°C° 0 mm 1 m/s 727 mmHg 18%
    13:00 +42°C° 0 mm 2 m/s 727 mmHg 17%
    14:00 +43°C° 0 mm 3 m/s 726 mmHg 16%
    15:00 +43°C° 0 mm 4 m/s 726 mmHg 15%
    16:00 +43°C° 0 mm 4 m/s 725 mmHg 15%
    17:00 +42°C° 0 mm 3 m/s 725 mmHg 15%
    18:00 +42°C° 0 mm 3 m/s 725 mmHg 15%
    19:00 +38°C° 0 mm 3 m/s 725 mmHg 19%
    20:00 +35°C° 0 mm 4 m/s 725 mmHg 24%
    21:00 +32°C° 0 mm 4 m/s 726 mmHg 28%
    22:00 +29°C° 0 mm 4 m/s 726 mmHg 31%
    23:00 +28°C° 0 mm 3 m/s 726 mmHg 35%
    Arată mai mult